KI5MKI Weather Reports


Display with metric or nautical units.
time (UTC)temp
F
wind
direction
speed
MPH
gust
MPH
rain 1hr
in
rain 24hr
in
rain mn
in
humidity
%
barometer
mb
20260509124033 68 84 2.0 3.0 0.00 0.00 0.00 96 1011.4
20260509123532 68 50 2.0 3.0 0.00 0.00 0.00 96 1011.4
20260509123027 68 101 3.0 3.0 0.00 0.00 0.00 96 1011.2
20260509122524 68 109 2.0 3.0 0.00 0.00 0.00 96 1011.1
20260509122021 68 119 3.0 3.0 0.00 0.00 0.00 96 1011.2
20260509121517 68 5 0.0 2.0 0.00 0.00 0.00 96 1011.3
20260509121015 68 8 1.0 2.0 0.00 0.00 0.00 96 1011.4
20260509120514 68 357 1.0 2.0 0.00 0.00 0.00 96 1011.1
20260509120011 68 11 2.0 2.0 0.00 0.59 0.59 96 1011.2
20260509115508 68 345 1.0 2.0 0.00 0.59 0.59 96 1011.1
20260509115006 68 120 4.0 4.0 0.00 0.59 0.59 96 1011.1
20260509114504 68 49 0.0 2.0 0.00 0.59 0.59 95 1011.1
20260509114003 68 275 1.0 1.0 0.00 0.59 0.59 95 1011.1
20260509113500 68 19 1.0 2.0 0.00 0.59 0.59 95 1010.9
20260509112957 68 8 2.0 3.0 0.00 0.59 0.59 95 1010.9
20260509112454 68 331 3.0 4.0 0.00 0.59 0.59 95 1010.6
20260509111950 68 320 2.0 3.0 0.00 0.59 0.59 95 1010.5
20260509111448 68 2 1.0 3.0 0.00 0.59 0.59 95 1010.3
20260509110945 68 61 0.0 2.0 0.00 0.59 0.59 95 1009.8
20260509110441 68 22 1.0 1.0 0.00 0.59 0.59 95 1009.8
20260509105939 68 34 1.0 2.0 0.00 0.59 0.59 95 1010.2
20260509105438 68 326 2.0 3.0 0.00 0.59 0.59 95 1010.2
20260509104934 68 348 1.0 2.0 0.00 0.59 0.59 95 1010.0
20260509104431 68 348 0.0 1.0 0.00 0.59 0.59 95 1009.8
20260509103928 68 327 2.0 2.0 0.00 0.59 0.59 95 1009.7
20260509103426 68 336 2.0 3.0 0.00 0.59 0.59 95 1009.7
20260509102924 68 357 1.0 2.0 0.00 0.59 0.59 95 1009.6
20260509102421 68 342 2.0 2.0 0.00 0.59 0.59 95 1009.3
20260509101917 67 311 2.0 2.0 0.00 0.59 0.59 95 1009.6
20260509101413 67 38 0.0 1.0 0.00 0.59 0.59 95 1009.2
20260509100911 67 24 0.0 2.0 0.00 0.59 0.59 95 1009.2
20260509100408 67 109 2.0 4.0 0.00 0.59 0.59 95 1009.0
20260509095904 67 115 4.0 4.0 0.00 0.59 0.59 95 1009.0
20260509095402 67 118 4.0 4.0 0.00 0.59 0.59 95 1009.1
20260509094859 67 113 4.0 5.0 0.00 0.59 0.59 95 1009.0
20260509094355 67 94 5.0 6.0 0.00 0.59 0.59 95 1008.8
20260509093853 67 135 6.0 8.0 0.00 0.59 0.59 95 1008.7
20260509093350 67 123 4.0 7.0 0.00 0.59 0.59 95 1008.7
20260509092849 67 124 6.0 6.0 0.00 0.59 0.59 95 1008.8
20260509092346 67 131 4.0 7.0 0.00 0.59 0.59 95 1008.8
20260509091844 67 164 3.0 8.0 0.00 0.59 0.59 95 1009.0
20260509091340 67 158 4.0 7.0 0.00 0.59 0.59 95 1009.1
20260509090838 68 153 5.0 6.0 0.00 0.59 0.59 95 1009.5
20260509090335 68 103 3.0 6.0 0.00 0.59 0.59 95 1009.5
20260509085832 68 104 4.0 5.0 0.00 0.59 0.59 95 1009.7
20260509085330 68 148 3.0 3.0 0.00 0.59 0.59 95 1010.1
20260509084826 68 58 2.0 4.0 0.00 0.59 0.59 95 1010.2
20260509084323 68 111 2.0 4.0 0.00 0.59 0.59 95 1010.3
20260509083821 68 137 2.0 4.0 0.00 0.59 0.59 95 1010.3
20260509083317 68 140 0.0 3.0 0.00 0.59 0.59 95 1010.1
20260509082814 67 114 3.0 6.0 0.00 0.59 0.59 95 1010.1
20260509082310 67 138 4.0 8.0 0.00 0.59 0.59 95 1010.2
20260509081808 67 125 5.0 7.0 0.00 0.59 0.59 95 1010.2
20260509081305 67 128 4.0 6.0 0.00 0.59 0.59 95 1010.2
20260509080803 67 138 6.0 6.0 0.00 0.59 0.59 95 1010.5
20260509080300 67 117 3.0 5.0 0.00 0.59 0.59 95 1010.6
20260509075759 67 160 3.0 6.0 0.00 0.59 0.59 95 1010.6
20260509075255 67 120 3.0 6.0 0.00 0.59 0.59 95 1010.6
20260509074752 68 116 2.0 4.0 0.00 0.59 0.59 95 1011.0
20260509074250 68 147 2.0 4.0 0.00 0.59 0.59 95 1011.1
20260509073746 67 108 1.0 3.0 0.00 0.59 0.59 95 1011.2
20260509073243 67 140 0.0 2.0 0.00 0.59 0.59 95 1011.3
20260509072739 67 10 1.0 2.0 0.00 0.59 0.59 95 1011.4
20260509072236 68 315 0.0 2.0 0.00 0.59 0.59 95 1011.3
20260509071733 68 330 2.0 3.0 0.00 0.59 0.59 95 1011.4
20260509071230 68 337 2.0 2.0 0.00 0.59 0.59 95 1011.2
20260509070727 68 13 0.0 2.0 0.00 0.59 0.59 95 1011.3
20260509070223 68 293 0.0 3.0 0.00 0.59 0.59 95 1011.2
20260509065720 68 328 0.0 2.0 0.00 0.59 0.59 95 1011.0
20260509065216 68 331 2.0 2.0 0.00 0.59 0.59 95 1010.9
20260509064712 68 76 0.0 2.0 0.00 0.59 0.59 95 1011.2
20260509064210 68 326 1.0 2.0 0.00 0.59 0.59 95 1011.3
20260509063707 68 320 2.0 2.0 0.00 0.59 0.59 95 1011.3
20260509063203 68 305 1.0 2.0 0.00 0.59 0.59 95 1011.3
20260509062701 68 37 0.0 2.0 0.00 0.59 0.59 95 1011.4
20260509062158 68 13 0.0 1.0 0.00 0.59 0.59 95 1011.5
20260509061655 68 20 2.0 2.0 0.00 0.59 0.59 95 1011.6
20260509061152 68 6 0.0 1.0 0.00 0.59 0.59 95 1011.8
20260509060650 68 323 0.0 2.0 0.00 0.59 0.59 95 1011.7
20260509060146 67 10 1.0 2.0 0.00 0.59 0.59 95 1011.6
20260509055641 67 358 0.0 0.0 0.00 0.59 0.59 95 1011.7
20260509055138 67 40 0.0 1.0 0.00 0.59 0.59 95 1011.7
20260509054634 67 31 0.0 1.0 0.00 0.59 0.59 95 1011.6
20260509054132 67 150 1.0 2.0 0.00 0.59 0.59 95 1011.3
20260509053630 67 144 2.0 5.0 0.00 0.59 0.59 95 1011.2
20260509053127 67 122 2.0 3.0 0.00 0.59 0.59 95 1011.2
20260509052625 67 312 1.0 1.0 0.00 0.59 0.59 94 1011.5
20260509052122 67 32 0.0 1.0 0.00 0.59 0.59 94 1011.2
20260509051620 67 93 0.0 3.0 0.00 0.59 0.59 94 1011.0
20260509051117 67 148 1.0 3.0 0.00 0.59 0.59 94 1011.1
20260509050614 67 126 2.0 2.0 0.00 0.59 0.59 94 1011.1
20260509050110 67 324 2.0 2.0 0.00 0.59 0.59 94 1011.1
20260509045608 67 344 1.0 2.0 0.00 0.59 0.59 94 1010.7
20260509045104 67 110 1.0 2.0 0.00 0.59 0.59 94 1010.5
20260509044602 67 323 0.0 1.0 0.00 0.59 0.59 94 1010.7
20260509044059 67 196 0.0 3.0 0.00 0.59 0.59 94 1011.0
20260509043555 67 144 0.0 2.0 0.00 0.59 0.59 94 1011.0
20260509043051 67 289 2.0 3.0 0.00 0.59 0.59 94 1011.3
20260509042547 67 282 2.0 3.0 0.02 0.59 0.59 94 1011.1
20260509042044 67 127 3.0 6.0 0.09 0.59 0.59 93 1010.8
20260509041540 67 108 4.0 15.0 0.31 0.59 0.59 93 1009.8
20260509041038 67 121 8.0 26.0 0.78 0.58 0.58 93 1009.4
20260509040536 67 116 9.0 15.0 1.68 0.55 0.55 92 1009.7
20260509040033 67 145 8.0 13.0 0.92 0.40 0.40 92 1010.5
20260509035530 68 143 5.0 8.0 0.17 0.27 0.27 92 1011.3
20260509035026 68 199 1.0 2.0 0.00 0.24 0.24 92 1011.5
20260509034525 68 89 0.0 0.0 0.00 0.24 0.24 91 1011.4
20260509034021 68 248 0.0 2.0 0.02 0.24 0.24 91 1011.0
20260509033518 68 77 1.0 2.0 0.17 0.24 0.24 91 1011.0
20260509033015 68 69 0.0 1.0 0.19 0.24 0.24 90 1011.3
20260509032512 68 286 1.0 2.0 0.90 0.22 0.22 89 1011.3
20260509032010 69 7 1.0 4.0 0.94 0.17 0.17 88 1011.1
20260509031507 69 354 1.0 3.0 0.31 0.05 0.05 87 1011.4
20260509031004 69 49 1.0 2.0 0.05 0.01 0.01 85 1011.1
20260509030502 70 123 3.0 9.0 0.00 0.00 0.00 83 1010.7
20260509025953 70 115 4.0 6.0 0.00 0.00 0.00 82 1010.8
20260509025448 71 136 6.0 7.0 0.00 0.00 0.00 80 1010.8
20260509024944 72 170 1.0 2.0 0.00 0.00 0.00 78 1010.9
20260509024440 72 132 2.0 2.0 0.00 0.00 0.00 78 1010.7
20260509023937 72 124 2.0 2.0 0.00 0.00 0.00 78 1010.5
20260509023435 72 142 0.0 2.0 0.00 0.00 0.00 77 1010.4
20260509022931 72 112 2.0 3.0 0.00 0.00 0.00 77 1010.3
20260509022428 72 160 0.0 0.0 0.00 0.00 0.00 77 1010.2
20260509021926 72 137 2.0 3.0 0.00 0.00 0.00 77 1010.0
20260509021422 72 144 2.0 3.0 0.00 0.00 0.00 77 1010.0
20260509020920 72 58 0.0 2.0 0.00 0.00 0.00 77 1009.6
20260509020418 72 89 1.0 3.0 0.00 0.00 0.00 76 1009.5
20260509015915 72 140 2.0 3.0 0.00 0.00 0.00 76 1009.7
20260509015414 72 139 2.0 4.0 0.00 0.00 0.00 76 1009.5
20260509014910 72 145 2.0 4.0 0.00 0.00 0.00 75 1010.0
20260509014407 72 138 1.0 3.0 0.00 0.00 0.00 75 1009.7
20260509013903 72 146 2.0 2.0 0.00 0.00 0.00 75 1009.8
20260509013400 72 140 1.0 3.0 0.00 0.00 0.00 75 1009.6
20260509012855 72 124 0.0 2.0 0.00 0.00 0.00 75 1009.6
20260509012352 72 113 2.0 2.0 0.00 0.00 0.00 74 1009.5
20260509011850 73 139 2.0 3.0 0.00 0.00 0.00 74 1009.5
20260509011347 73 135 0.0 2.0 0.00 0.00 0.00 74 1009.2
20260509010845 73 141 2.0 3.0 0.00 0.00 0.00 73 1009.4
20260509010342 73 146 2.0 3.0 0.00 0.00 0.00 73 1009.2
20260509005839 73 154 1.0 3.0 0.00 0.00 0.00 72 1009.3
20260509005337 73 141 2.0 3.0 0.00 0.00 0.00 71 1009.2
20260509004837 74 119 3.0 4.0 0.00 0.00 0.00 70 1008.9
20260509004334 74 128 3.0 3.0 0.00 0.00 0.00 69 1009.0
20260509003831 74 180 3.0 4.0 0.00 0.00 0.00 69 1009.0
20260509003329 75 151 2.0 4.0 0.00 0.00 0.00 68 1009.0
20260509002826 75 173 2.0 4.0 0.00 0.00 0.00 68 1009.0
20260509002323 75 134 5.0 5.0 0.00 0.00 0.00 67 1009.1
20260509001821 75 163 3.0 6.0 0.00 0.00 0.00 66 1009.1
20260509001317 75 158 3.0 6.0 0.00 0.00 0.00 66 1008.9
20260509000815 76 127 3.0 5.0 0.00 0.00 0.00 64 1009.1
20260509000312 76 181 4.0 8.0 0.00 0.00 0.00 64 1009.0
20260508235803 77 157 5.0 6.0 0.00 0.00 0.00 64 1009.2
20260508235300 77 156 4.0 6.0 0.00 0.00 0.00 63 1009.3
20260508234757 77 152 4.0 6.0 0.00 0.00 0.00 63 1009.2
20260508234252 77 146 4.0 6.0 0.00 0.00 0.00 61 1009.2
20260508233746 77 154 4.0 9.0 0.00 0.00 0.00 62 1009.5
20260508233244 77 113 3.0 5.0 0.00 0.00 0.00 63 1009.5
20260508232741 76 128 6.0 9.0 0.00 0.00 0.00 62 1009.5
20260508232238 76 105 4.0 12.0 0.00 0.00 0.00 63 1009.5
20260508231736 77 118 5.0 7.0 0.00 0.00 0.00 61 1009.4
20260508231232 77 158 4.0 8.0 0.00 0.00 0.00 60 1009.4
20260508230729 77 200 3.0 3.0 0.00 0.00 0.00 61 1009.4
20260508230225 77 166 3.0 8.0 0.00 0.00 0.00 61 1009.5
20260508225723 77 131 4.0 7.0 0.00 0.00 0.00 59 1009.7
20260508225219 77 135 3.0 6.0 0.00 0.00 0.00 58 1009.7
20260508224718 78 143 5.0 9.0 0.00 0.00 0.00 57 1009.5
20260508224215 78 153 4.0 6.0 0.00 0.00 0.00 59 1009.4
20260508223712 79 108 5.0 10.0 0.00 0.00 0.00 57 1008.8
20260508223209 80 160 4.0 4.0 0.00 0.00 0.00 59 1008.4
20260508222707 79 149 9.0 10.0 0.00 0.00 0.00 58 1008.2
20260508222204 79 128 6.0 7.0 0.00 0.00 0.00 57 1008.4
20260508221700 78 120 6.0 11.0 0.00 0.00 0.00 59 1008.7
20260508221156 78 111 5.0 9.0 0.00 0.00 0.00 60 1009.0
20260508220652 77 121 4.0 7.0 0.00 0.00 0.00 61 1009.4
20260508220149 76 109 4.0 9.0 0.00 0.00 0.00 63 1009.6
20260508215646 75 128 5.0 5.0 0.00 0.00 0.00 64 1010.1
20260508215142 75 162 4.0 6.0 0.00 0.00 0.00 64 1010.2
20260508214639 75 136 7.0 7.0 0.00 0.00 0.00 63 1010.3
20260508214137 75 154 6.0 9.0 0.00 0.00 0.00 63 1010.3
20260508213633 75 159 3.0 7.0 0.00 0.00 0.00 63 1010.1
20260508213129 76 135 5.0 6.0 0.00 0.00 0.00 63 1010.2
20260508212626 76 174 3.0 6.0 0.00 0.00 0.00 61 1010.4
20260508212123 76 163 4.0 5.0 0.00 0.00 0.00 61 1010.4
20260508211618 76 152 4.0 6.0 0.00 0.00 0.00 60 1010.5
20260508211115 76 176 2.0 4.0 0.00 0.00 0.00 59 1010.6
20260508210611 77 154 4.0 7.0 0.00 0.00 0.00 59 1010.3
20260508210109 77 135 6.0 6.0 0.00 0.00 0.00 58 1010.5
20260508205606 77 148 3.0 9.0 0.00 0.00 0.00 58 1010.5
20260508205102 77 186 2.0 5.0 0.00 0.00 0.00 59 1010.8
20260508204558 77 163 4.0 4.0 0.00 0.00 0.00 61 1010.6
20260508204054 77 137 2.0 7.0 0.00 0.00 0.00 59 1010.7
20260508203551 78 127 7.0 9.0 0.00 0.00 0.00 57 1010.6
20260508203047 78 236 2.0 3.0 0.00 0.00 0.00 60 1010.9
20260508202543 77 124 4.0 6.0 0.00 0.00 0.00 58 1010.9
20260508202041 79 127 5.0 6.0 0.00 0.00 0.00 56 1010.9
20260508201537 78 105 2.0 6.0 0.00 0.00 0.00 56 1010.9
20260508201034 78 185 3.0 5.0 0.00 0.00 0.00 57 1011.1
20260508200531 78 123 9.0 13.0 0.00 0.00 0.00 55 1011.2
20260508200027 77 118 6.0 8.0 0.00 0.00 0.00 57 1011.1
20260508195524 77 99 3.0 8.0 0.00 0.00 0.00 55 1011.3
20260508195020 77 115 7.0 10.0 0.00 0.00 0.00 54 1011.2
20260508194517 77 124 10.0 10.0 0.00 0.00 0.00 51 1011.5
20260508194014 78 142 5.0 13.0 0.00 0.00 0.00 53 1011.3
20260508193510 78 117 5.0 11.0 0.00 0.00 0.00 53 1011.4
20260508193007 78 124 8.0 10.0 0.00 0.00 0.00 55 1011.3
20260508192504 78 118 4.0 8.0 0.00 0.00 0.00 56 1011.5
20260508192001 78 178 4.0 6.0 0.00 0.00 0.00 56 1011.6
20260508191458 78 138 6.0 11.0 0.00 0.00 0.00 59 1011.8
20260508190954 78 119 8.0 8.0 0.00 0.00 0.00 60 1011.8
20260508190452 77 201 4.0 11.0 0.00 0.00 0.00 57 1011.8
20260508185948 76 138 2.0 10.0 0.00 0.00 0.00 58 1011.7
20260508185445 77 147 8.0 10.0 0.00 0.00 0.00 57 1011.8
20260508184943 77 187 0.0 10.0 0.00 0.00 0.00 56 1012.0
20260508184440 77 165 1.0 3.0 0.00 0.00 0.00 64 1012.0
20260508183937 77 138 7.0 12.0 0.00 0.00 0.00 57 1012.0
20260508183433 77 138 4.0 10.0 0.00 0.00 0.00 59 1012.1
20260508182928 77 184 2.0 4.0 0.00 0.00 0.00 59 1012.0
20260508182426 77 111 2.0 8.0 0.00 0.00 0.00 57 1012.4
20260508181926 77 118 7.0 10.0 0.00 0.00 0.00 55 1012.3
20260508181423 77 144 4.0 7.0 0.00 0.00 0.00 59 1012.5
20260508180921 75 129 2.0 6.0 0.00 0.00 0.00 59 1012.6
20260508180418 75 155 2.0 6.0 0.00 0.00 0.00 62 1013.0
20260508175913 76 166 7.0 9.0 0.00 0.00 0.00 63 1012.7
20260508175410 75 147 2.0 6.0 0.00 0.00 0.00 62 1013.0
20260508174908 76 89 0.0 8.0 0.00 0.00 0.00 63 1013.3
20260508174406 76 118 7.0 7.0 0.00 0.00 0.00 61 1013.2
20260508173902 75 181 4.0 5.0 0.00 0.00 0.00 62 1013.3
20260508173359 76 185 3.0 6.0 0.00 0.00 0.00 59 1013.4
20260508172855 74 142 2.0 5.0 0.00 0.00 0.00 65 1013.5
20260508172353 74 147 5.0 10.0 0.00 0.00 0.00 62 1013.6
20260508171848 73 159 3.0 4.0 0.00 0.00 0.00 63 1013.7
20260508171345 74 128 2.0 6.0 0.00 0.00 0.00 62 1013.8
20260508170842 73 151 8.0 8.0 0.00 0.00 0.00 63 1013.9
20260508170340 72 141 6.0 6.0 0.00 0.00 0.00 66 1014.2
20260508165836 72 191 2.0 9.0 0.00 0.00 0.00 64 1014.2
20260508165334 72 134 6.0 8.0 0.00 0.00 0.00 66 1014.4
20260508164829 73 148 4.0 10.0 0.00 0.00 0.00 65 1014.5
20260508164326 74 145 7.0 8.0 0.00 0.00 0.00 68 1014.4
20260508163825 72 159 6.0 11.0 0.00 0.00 0.00 65 1014.4
20260508163322 73 147 6.0 6.0 0.00 0.00 0.00 67 1014.5
20260508162817 73 168 2.0 4.0 0.00 0.00 0.00 65 1014.5
20260508162314 73 207 2.0 6.0 0.00 0.00 0.00 66 1014.5
20260508161812 72 166 4.0 6.0 0.00 0.00 0.00 68 1014.5
20260508161309 71 194 4.0 10.0 0.00 0.00 0.00 69 1014.4
20260508160806 71 171 4.0 9.0 0.00 0.00 0.00 71 1014.7
20260508160305 71 133 3.0 9.0 0.00 0.00 0.00 69 1014.5
20260508155801 71 151 9.0 12.0 0.00 0.00 0.00 68 1014.5
20260508155258 71 143 7.0 13.0 0.00 0.00 0.00 68 1014.3
20260508154754 70 121 9.0 13.0 0.00 0.00 0.00 69 1014.3
20260508154252 70 140 6.0 12.0 0.00 0.00 0.00 69 1014.5
20260508153748 70 136 5.0 10.0 0.00 0.00 0.00 72 1014.5
20260508153246 69 121 7.0 10.0 0.00 0.00 0.00 72 1014.6
20260508152742 69 97 3.0 9.0 0.00 0.00 0.00 72 1014.8
20260508152238 68 104 4.0 6.0 0.00 0.00 0.00 72 1014.7
20260508151734 69 110 5.0 8.0 0.00 0.00 0.00 72 1014.7
20260508151232 69 127 6.0 9.0 0.00 0.00 0.00 72 1014.9
20260508150728 68 137 8.0 9.0 0.00 0.00 0.00 70 1015.0
20260508150225 68 144 5.0 9.0 0.00 0.00 0.00 72 1014.9
20260508145721 67 104 4.0 6.0 0.00 0.00 0.00 72 1014.9
20260508145217 68 141 5.0 6.0 0.00 0.00 0.00 73 1015.1
20260508144714 68 129 3.0 5.0 0.00 0.00 0.00 73 1015.4
20260508144212 66 71 1.0 4.0 0.00 0.00 0.00 77 1015.0
20260508143709 65 120 4.0 7.0 0.00 0.00 0.00 80 1015.2
20260508143206 65 124 7.0 8.0 0.00 0.00 0.00 79 1015.0
20260508142702 64 114 7.0 10.0 0.00 0.00 0.00 80 1015.1
20260508142159 64 137 7.0 9.0 0.00 0.00 0.00 80 1015.2
20260508141656 64 129 4.0 5.0 0.00 0.00 0.00 81 1014.9
20260508141154 64 147 5.0 7.0 0.00 0.00 0.00 84 1014.9
20260508140651 64 94 2.0 10.0 0.00 0.00 0.00 85 1014.9
20260508140148 63 139 9.0 10.0 0.00 0.00 0.00 87 1014.8
20260508135643 63 109 5.0 9.0 0.00 0.00 0.00 87 1014.7
20260508135139 62 123 4.0 5.0 0.00 0.00 0.00 87 1015.1
20260508134636 62 117 6.0 9.0 0.00 0.00 0.00 87 1015.0
20260508134133 63 29 0.0 2.0 0.00 0.00 0.00 89 1015.2
20260508133630 62 159 0.0 2.0 0.00 0.00 0.00 89 1015.4
20260508133127 62 115 6.0 7.0 0.00 0.00 0.00 88 1015.5
20260508132625 62 116 2.0 4.0 0.00 0.00 0.00 89 1015.7
20260508132121 61 79 1.0 2.0 0.00 0.00 0.00 90 1016.0
20260508131617 61 115 4.0 5.0 0.00 0.00 0.00 90 1015.8
20260508131114 61 108 2.0 3.0 0.00 0.00 0.00 91 1015.6
20260508130611 60 142 0.0 2.0 0.00 0.00 0.00 91 1015.8
20260508130107 60 59 2.0 2.0 0.00 0.00 0.00 91 1015.9
20260508125602 60 101 2.0 3.0 0.00 0.00 0.00 91 1016.0
20260508125101 60 337 0.0 2.0 0.00 0.00 0.00 91 1016.1
20260508124558 60 105 3.0 4.0 0.00 0.00 0.00 91 1016.1